Language: 


Des rapports , des résumés tant et plus, au choix de chacun....


Données statistiques de la station
Quotidien Rapport Mai 5, 2017 Unités:  Métrique    Anglais   les deux
« Précédent Jour
Suivant Jour »
Quotidien Hebdomadaire Mensuel Annuel Actuel
  Haut: Bas: Moyen:
Température: 14.4 °C 8.2 °C 11.3 °C
Pt de rosée: 10.0 °C 7.0 °C 8.3 °C
Humidité: 96 % 67 % 80 %
Vitesse du vent: 17.7 km/h 0.0 km/h 10.3 km/h
Rafales: 20.9 km/h - -
Vent:- - ENE
Pression: 1018.8 hPa 1014.1 hPa -
Précipitation: 0.0 mm    
Historical Graphs
 
 
Données statistiques pour Mai 5, 2017
Heure Température Point de rosée Pression Vent Vitesse du vent Refales Humidité Pluie (taux horaire)
00:04 11.7 °C 10.0 °C 1018.8 hPa NE 9.7 km/h 14.0 km/h 88 % 0.0 mm
00:09 11.7 °C 10.0 °C 1018.2 hPa NE 11.9 km/h 14.0 km/h 88 % 0.0 mm
00:14 11.7 °C 10.0 °C 1018.2 hPa NNE 11.9 km/h 14.3 km/h 88 % 0.0 mm
00:19 11.7 °C 10.0 °C 1018.2 hPa NE 8.7 km/h 14.3 km/h 88 % 0.0 mm
00:24 11.7 °C 10.0 °C 1018.2 hPa NNE 12.2 km/h 14.3 km/h 87 % 0.0 mm
00:30 11.7 °C 10.0 °C 1018.2 hPa NE 12.6 km/h 17.7 km/h 87 % 0.0 mm
00:35 11.7 °C 9.0 °C 1018.2 hPa NE 13.0 km/h 17.7 km/h 86 % 0.0 mm
00:40 11.6 °C 9.0 °C 1018.8 hPa NE 12.6 km/h 14.0 km/h 86 % 0.0 mm
00:45 11.6 °C 9.0 °C 1018.8 hPa NNE 14.0 km/h 17.2 km/h 86 % 0.0 mm
00:50 11.6 °C 9.0 °C 1018.8 hPa NE 14.3 km/h 17.2 km/h 86 % 0.0 mm
00:55 11.5 °C 9.0 °C 1018.2 hPa NE 13.7 km/h 16.3 km/h 85 % 0.0 mm
01:00 11.5 °C 9.0 °C 1018.2 hPa North 13.7 km/h 16.3 km/h 85 % 0.0 mm
01:05 11.5 °C 9.0 °C 1018.2 hPa NE 13.0 km/h 15.8 km/h 85 % 0.0 mm
01:10 11.4 °C 9.0 °C 1018.8 hPa NE 12.2 km/h 16.3 km/h 85 % 0.0 mm
01:15 11.4 °C 9.0 °C 1018.8 hPa NE 14.0 km/h 16.6 km/h 85 % 0.0 mm
01:20 11.4 °C 9.0 °C 1018.8 hPa NE 16.9 km/h 16.9 km/h 85 % 0.0 mm
01:25 11.4 °C 9.0 °C 1018.8 hPa NNE 12.2 km/h 16.9 km/h 85 % 0.0 mm
01:30 11.4 °C 9.0 °C 1018.8 hPa ENE 13.7 km/h 15.4 km/h 85 % 0.0 mm
01:35 11.4 °C 9.0 °C 1018.8 hPa NE 10.1 km/h 14.0 km/h 85 % 0.0 mm
01:40 11.3 °C 9.0 °C 1018.8 hPa NE 11.9 km/h 15.8 km/h 85 % 0.0 mm
01:46 11.3 °C 9.0 °C 1018.8 hPa NE 6.1 km/h 15.8 km/h 85 % 0.0 mm
01:51 11.3 °C 9.0 °C 1018.8 hPa ENE 12.2 km/h 16.6 km/h 84 % 0.0 mm
01:56 11.2 °C 9.0 °C 1018.8 hPa NE 14.0 km/h 16.6 km/h 84 % 0.0 mm
02:01 11.1 °C 8.0 °C 1018.8 hPa NE 11.9 km/h 15.8 km/h 83 % 0.0 mm
02:06 10.9 °C 8.0 °C 1018.8 hPa NNE 10.5 km/h 14.0 km/h 83 % 0.0 mm
02:11 10.8 °C 8.0 °C 1018.8 hPa NE 10.1 km/h 16.9 km/h 83 % 0.0 mm
02:16 10.6 °C 8.0 °C 1018.8 hPa ENE 9.0 km/h 16.9 km/h 83 % 0.0 mm
02:21 10.4 °C 8.0 °C 1018.8 hPa North 6.9 km/h 13.0 km/h 83 % 0.0 mm
02:26 10.3 °C 8.0 °C 1018.8 hPa NE 4.7 km/h 10.8 km/h 84 % 0.0 mm
02:31 10.1 °C 8.0 °C 1018.8 hPa NNE 3.2 km/h 10.5 km/h 84 % 0.0 mm
02:36 9.8 °C 8.0 °C 1018.8 hPa NE 6.9 km/h 9.7 km/h 85 % 0.0 mm
02:41 9.6 °C 8.0 °C 1018.8 hPa NE 9.0 km/h 9.3 km/h 86 % 0.0 mm
02:46 9.4 °C 7.0 °C 1018.8 hPa NE 4.7 km/h 9.3 km/h 86 % 0.0 mm
02:51 9.4 °C 8.0 °C 1018.8 hPa NE 9.0 km/h 11.1 km/h 87 % 0.0 mm
02:56 9.4 °C 8.0 °C 1018.8 hPa ENE 6.9 km/h 11.1 km/h 89 % 0.0 mm
03:01 9.3 °C 8.0 °C 1018.8 hPa NE 5.0 km/h 10.1 km/h 89 % 0.0 mm
03:06 9.2 °C 8.0 °C 1018.8 hPa NE 7.6 km/h 10.1 km/h 90 % 0.0 mm
03:11 9.2 °C 8.0 °C 1018.8 hPa NNE 9.0 km/h 12.2 km/h 91 % 0.0 mm
03:16 9.2 °C 8.0 °C 1018.8 hPa NE 6.9 km/h 12.2 km/h 91 % 0.0 mm
03:21 9.1 °C 8.0 °C 1018.2 hPa NE 6.9 km/h 10.5 km/h 91 % 0.0 mm
03:26 9.1 °C 8.0 °C 1018.2 hPa NE 5.0 km/h 10.5 km/h 91 % 0.0 mm
03:32 8.9 °C 8.0 °C 1018.2 hPa ENE 8.7 km/h 10.8 km/h 92 % 0.0 mm
03:37 8.8 °C 8.0 °C 1018.8 hPa Calm   10.8 km/h 92 % 0.0 mm
03:42 8.6 °C 8.0 °C 1018.8 hPa NE 2.6 km/h 7.6 km/h 91 % 0.0 mm
03:47 8.5 °C 8.0 °C 1018.8 hPa NE 5.5 km/h 7.6 km/h 91 % 0.0 mm
03:52 8.4 °C 7.0 °C 1018.2 hPa North 6.4 km/h 9.3 km/h 92 % 0.0 mm
03:57 8.3 °C 8.0 °C 1018.2 hPa NE 8.7 km/h 9.3 km/h 93 % 0.0 mm
04:02 8.3 °C 8.0 °C 1018.2 hPa NNE 9.0 km/h 9.7 km/h 93 % 0.0 mm
04:07 8.2 °C 7.0 °C 1018.8 hPa NE 13.0 km/h 13.0 km/h 94 % 0.0 mm
04:12 8.3 °C 8.0 °C 1018.8 hPa North 12.2 km/h 13.0 km/h 94 % 0.0 mm
04:17 8.4 °C 8.0 °C 1018.8 hPa NNE 8.7 km/h 14.0 km/h 95 % 0.0 mm
04:22 8.5 °C 8.0 °C 1018.8 hPa NE 1.4 km/h 14.0 km/h 95 % 0.0 mm
04:27 8.6 °C 8.0 °C 1018.8 hPa NNE 10.1 km/h 11.6 km/h 95 % 0.0 mm
04:32 8.8 °C 9.0 °C 1018.8 hPa NE 6.4 km/h 13.7 km/h 96 % 0.0 mm
04:37 8.9 °C 9.0 °C 1018.8 hPa East 6.1 km/h 13.7 km/h 96 % 0.0 mm
04:42 9.1 °C 9.0 °C 1018.8 hPa NE 8.7 km/h 11.6 km/h 96 % 0.0 mm
04:47 9.2 °C 9.0 °C 1018.8 hPa NE 4.3 km/h 11.6 km/h 96 % 0.0 mm
04:52 9.3 °C 9.0 °C 1018.8 hPa North 5.0 km/h 11.9 km/h 95 % 0.0 mm
04:57 9.4 °C 9.0 °C 1018.8 hPa ENE 6.1 km/h 11.9 km/h 95 % 0.0 mm
05:02 9.5 °C 9.0 °C 1018.8 hPa NNE 7.9 km/h 10.5 km/h 95 % 0.0 mm
05:07 9.5 °C 9.0 °C 1018.8 hPa NE 8.7 km/h 10.1 km/h 95 % 0.0 mm
05:13 9.6 °C 9.0 °C 1018.8 hPa Calm   10.1 km/h 95 % 0.0 mm
05:18 9.6 °C 9.0 °C 1018.8 hPa NE 4.7 km/h 10.1 km/h 95 % 0.0 mm
05:23 9.6 °C 9.0 °C 1018.8 hPa NE 5.5 km/h 8.7 km/h 94 % 0.0 mm
05:28 9.6 °C 9.0 °C 1018.8 hPa North 4.0 km/h 9.3 km/h 94 % 0.0 mm
05:33 9.6 °C 9.0 °C 1018.8 hPa NE 2.6 km/h 9.3 km/h 94 % 0.0 mm
05:38 9.6 °C 9.0 °C 1018.8 hPa NNE 4.0 km/h 7.6 km/h 94 % 0.0 mm
05:43 9.6 °C 9.0 °C 1018.8 hPa NE 5.8 km/h 7.6 km/h 94 % 0.0 mm
05:48 9.6 °C 9.0 °C 1018.8 hPa North 4.7 km/h 7.6 km/h 94 % 0.0 mm
05:53 9.6 °C 9.0 °C 1018.8 hPa NE 6.9 km/h 8.7 km/h 94 % 0.0 mm
05:58 9.6 °C 9.0 °C 1018.8 hPa NE 10.5 km/h 13.0 km/h 94 % 0.0 mm
06:03 9.7 °C 9.0 °C 1018.8 hPa NE 6.4 km/h 13.0 km/h 94 % 0.0 mm
06:08 9.8 °C 9.0 °C 1018.8 hPa NE 9.3 km/h 10.8 km/h 94 % 0.0 mm
06:13 9.8 °C 9.0 °C 1018.8 hPa NE 9.3 km/h 10.5 km/h 94 % 0.0 mm
06:18 9.8 °C 9.0 °C 1018.8 hPa NE 12.2 km/h 12.2 km/h 94 % 0.0 mm
06:23 9.8 °C 9.0 °C 1018.8 hPa NNE 11.6 km/h 15.8 km/h 94 % 0.0 mm
06:28 9.9 °C 9.0 °C 1018.8 hPa ENE 10.1 km/h 15.8 km/h 94 % 0.0 mm
06:33 9.8 °C 9.0 °C 1018.8 hPa NE 11.6 km/h 14.3 km/h 93 % 0.0 mm
06:38 9.8 °C 9.0 °C 1018.8 hPa NNE 14.0 km/h 17.7 km/h 93 % 0.0 mm
06:43 9.8 °C 9.0 °C 1018.8 hPa NE 6.9 km/h 17.7 km/h 93 % 0.0 mm
06:49 9.7 °C 9.0 °C 1018.8 hPa NE 11.6 km/h 15.4 km/h 93 % 0.0 mm
06:54 9.7 °C 9.0 °C 1018.8 hPa NE 8.7 km/h 14.0 km/h 93 % 0.0 mm
06:59 9.6 °C 9.0 °C 1018.8 hPa NNE 9.7 km/h 14.3 km/h 93 % 0.0 mm
07:04 9.6 °C 9.0 °C 1018.8 hPa NE 12.2 km/h 14.3 km/h 93 % 0.0 mm
07:09 9.6 °C 9.0 °C 1018.8 hPa NNE 9.0 km/h 13.7 km/h 93 % 0.0 mm
07:14 9.5 °C 9.0 °C 1018.8 hPa NNE 10.8 km/h 13.7 km/h 93 % 0.0 mm
07:16 9.5 °C 9.0 °C 1018.8 hPa NE 9.7 km/h 14.8 km/h 93 % 0.0 mm
07:21 9.4 °C 9.0 °C 1018.8 hPa NNE 13.0 km/h 15.8 km/h 93 % 0.0 mm
07:26 9.4 °C 9.0 °C 1018.8 hPa North 11.6 km/h 16.3 km/h 93 % 0.0 mm
07:31 9.4 °C 9.0 °C 1018.8 hPa North 12.6 km/h 16.3 km/h 93 % 0.0 mm
07:36 9.4 °C 9.0 °C 1018.8 hPa NE 12.6 km/h 15.8 km/h 93 % 0.0 mm
07:41 9.4 °C 9.0 °C 1018.8 hPa NNE 12.2 km/h 16.6 km/h 93 % 0.0 mm
07:46 9.3 °C 8.0 °C 1018.8 hPa NE 13.7 km/h 18.0 km/h 92 % 0.0 mm
07:51 9.3 °C 8.0 °C 1018.8 hPa NE 15.8 km/h 18.0 km/h 92 % 0.0 mm
07:56 9.3 °C 8.0 °C 1018.8 hPa NNW 13.7 km/h 15.8 km/h 92 % 0.0 mm
08:01 9.3 °C 8.0 °C 1018.8 hPa NE 10.8 km/h 15.4 km/h 91 % 0.0 mm
08:06 9.3 °C 8.0 °C 1018.8 hPa NE 10.5 km/h 16.6 km/h 91 % 0.0 mm
08:12 9.3 °C 8.0 °C 1018.8 hPa North 12.6 km/h 16.6 km/h 90 % 0.0 mm
08:17 9.3 °C 8.0 °C 1018.8 hPa NE 16.3 km/h 17.7 km/h 89 % 0.0 mm
08:22 9.3 °C 8.0 °C 1018.2 hPa NE 9.0 km/h 17.7 km/h 89 % 0.0 mm
08:27 9.3 °C 8.0 °C 1018.2 hPa East 10.5 km/h 17.2 km/h 88 % 0.0 mm
08:32 9.4 °C 8.0 °C 1018.2 hPa ENE 12.6 km/h 17.2 km/h 88 % 0.0 mm
08:37 9.4 °C 8.0 °C 1018.8 hPa NE 12.2 km/h 15.8 km/h 88 % 0.0 mm
08:39 9.4 °C 8.0 °C 1018.8 hPa NE 12.2 km/h 16.3 km/h 88 % 0.0 mm
08:44 9.4 °C 8.0 °C 1018.8 hPa NE 12.2 km/h 16.3 km/h 88 % 0.0 mm
08:49 9.5 °C 8.0 °C 1018.8 hPa NE 13.7 km/h 14.3 km/h 88 % 0.0 mm
08:54 9.5 °C 8.0 °C 1018.8 hPa ENE 10.5 km/h 18.3 km/h 88 % 0.0 mm
08:59 9.5 °C 8.0 °C 1018.8 hPa NE 11.9 km/h 18.3 km/h 88 % 0.0 mm
09:04 9.6 °C 8.0 °C 1018.8 hPa NE 6.4 km/h 17.7 km/h 88 % 0.0 mm
09:09 9.7 °C 8.0 °C 1018.8 hPa ENE 17.7 km/h 17.7 km/h 88 % 0.0 mm
09:14 9.7 °C 8.0 °C 1018.8 hPa ENE 8.7 km/h 17.7 km/h 88 % 0.0 mm
09:19 9.7 °C 8.0 °C 1018.8 hPa NE 12.6 km/h 16.6 km/h 87 % 0.0 mm
09:24 9.8 °C 8.0 °C 1018.8 hPa NNE 13.7 km/h 16.6 km/h 87 % 0.0 mm
09:29 9.8 °C 8.0 °C 1018.8 hPa ENE 11.9 km/h 17.2 km/h 86 % 0.0 mm
09:34 9.8 °C 8.0 °C 1018.8 hPa NE 7.9 km/h 17.2 km/h 86 % 0.0 mm
09:39 9.9 °C 8.0 °C 1018.8 hPa NNE 13.7 km/h 17.7 km/h 86 % 0.0 mm
09:44 10.0 °C 8.0 °C 1018.8 hPa NNE 9.3 km/h 17.7 km/h 86 % 0.0 mm
09:49 10.1 °C 8.0 °C 1018.8 hPa ENE 12.6 km/h 14.0 km/h 86 % 0.0 mm
09:54 10.2 °C 8.0 °C 1018.8 hPa NE 10.1 km/h 14.0 km/h 85 % 0.0 mm
10:00 10.3 °C 8.0 °C 1018.8 hPa NE 7.9 km/h 14.0 km/h 85 % 0.0 mm
10:05 10.5 °C 9.0 °C 1018.8 hPa NE 15.4 km/h 15.4 km/h 85 % 0.0 mm
10:10 10.5 °C 8.0 °C 1018.8 hPa NE 16.9 km/h 17.2 km/h 84 % 0.0 mm
10:15 10.6 °C 8.0 °C 1018.8 hPa NE 8.7 km/h 17.2 km/h 83 % 0.0 mm
10:20 10.8 °C 8.0 °C 1018.8 hPa NE 11.9 km/h 15.8 km/h 83 % 0.0 mm
10:25 10.9 °C 8.0 °C 1018.8 hPa NE 16.3 km/h 16.3 km/h 82 % 0.0 mm
10:30 11.0 °C 8.0 °C 1018.8 hPa East 9.7 km/h 16.3 km/h 81 % 0.0 mm
10:35 11.0 °C 8.0 °C 1018.8 hPa NE 15.8 km/h 19.1 km/h 79 % 0.0 mm
10:40 11.1 °C 8.0 °C 1018.8 hPa ENE 14.3 km/h 19.1 km/h 79 % 0.0 mm
10:45 11.3 °C 8.0 °C 1018.8 hPa NE 13.7 km/h 16.6 km/h 78 % 0.0 mm
10:50 11.6 °C 8.0 °C 1018.8 hPa NNE 12.2 km/h 14.3 km/h 78 % 0.0 mm
10:55 11.6 °C 8.0 °C 1018.2 hPa ENE 14.0 km/h 16.3 km/h 76 % 0.0 mm
11:00 11.7 °C 8.0 °C 1018.2 hPa NE 11.6 km/h 16.3 km/h 76 % 0.0 mm
11:05 11.6 °C 8.0 °C 1018.8 hPa NE 11.9 km/h 16.3 km/h 76 % 0.0 mm
11:10 11.7 °C 8.0 °C 1018.8 hPa North 12.2 km/h 14.8 km/h 77 % 0.0 mm
11:16 11.7 °C 8.0 °C 1018.8 hPa NE 11.9 km/h 15.8 km/h 77 % 0.0 mm
11:21 11.6 °C 8.0 °C 1018.8 hPa NE 14.0 km/h 15.8 km/h 75 % 0.0 mm
11:26 11.5 °C 8.0 °C 1018.2 hPa ENE 13.7 km/h 15.4 km/h 75 % 0.0 mm
11:31 11.5 °C 8.0 °C 1018.2 hPa East 15.4 km/h 15.4 km/h 75 % 0.0 mm
11:36 11.5 °C 8.0 °C 1018.8 hPa ENE 11.6 km/h 15.4 km/h 76 % 0.0 mm
11:41 11.5 °C 8.0 °C 1018.8 hPa NE 9.7 km/h 15.4 km/h 75 % 0.0 mm
11:46 11.4 °C 7.0 °C 1018.8 hPa ENE 11.6 km/h 15.4 km/h 75 % 0.0 mm
11:51 11.5 °C 8.0 °C 1018.8 hPa NE 10.5 km/h 15.8 km/h 75 % 0.0 mm
11:56 11.7 °C 8.0 °C 1018.8 hPa NE 10.5 km/h 15.8 km/h 75 % 0.0 mm
12:01 11.7 °C 8.0 °C 1018.8 hPa NE 9.7 km/h 12.6 km/h 75 % 0.0 mm
12:06 11.8 °C 8.0 °C 1018.8 hPa ENE 10.1 km/h 12.2 km/h 75 % 0.0 mm
12:11 11.8 °C 8.0 °C 1018.8 hPa ENE 12.6 km/h 13.0 km/h 75 % 0.0 mm
12:16 11.8 °C 8.0 °C 1018.8 hPa NNE 13.7 km/h 13.7 km/h 75 % 0.0 mm
12:21 11.9 °C 8.0 °C 1018.8 hPa NE 11.9 km/h 14.0 km/h 75 % 0.0 mm
12:26 12.1 °C 8.0 °C 1018.8 hPa East 9.7 km/h 14.0 km/h 75 % 0.0 mm
12:31 12.2 °C 8.0 °C 1018.8 hPa ENE 9.7 km/h 13.0 km/h 74 % 0.0 mm
12:36 12.1 °C 8.0 °C 1018.8 hPa East 10.1 km/h 13.0 km/h 74 % 0.0 mm
12:41 12.1 °C 8.0 °C 1018.8 hPa East 12.6 km/h 14.0 km/h 74 % 0.0 mm
12:46 11.9 °C 8.0 °C 1018.8 hPa NE 11.6 km/h 16.9 km/h 74 % 0.0 mm
12:51 11.9 °C 8.0 °C 1018.8 hPa ENE 7.9 km/h 16.9 km/h 74 % 0.0 mm
12:52 11.9 °C 8.0 °C 1018.8 hPa NE 10.1 km/h 16.9 km/h 74 % 0.0 mm
12:57 12.1 °C 8.0 °C 1018.8 hPa East 9.7 km/h 13.0 km/h 74 % 0.0 mm
13:02 12.4 °C 8.0 °C 1018.8 hPa ENE 8.7 km/h 13.0 km/h 74 % 0.0 mm
13:07 12.7 °C 9.0 °C 1018.8 hPa NNE 11.9 km/h 12.2 km/h 74 % 0.0 mm
13:12 13.0 °C 9.0 °C 1018.8 hPa East 6.4 km/h 13.0 km/h 73 % 0.0 mm
13:17 13.1 °C 9.0 °C 1018.8 hPa ENE 13.0 km/h 14.3 km/h 72 % 0.0 mm
13:22 13.1 °C 9.0 °C 1018.8 hPa ESE 12.2 km/h 14.3 km/h 72 % 0.0 mm
13:27 13.2 °C 9.0 °C 1018.8 hPa East 11.9 km/h 13.0 km/h 72 % 0.0 mm
13:33 13.3 °C 9.0 °C 1018.8 hPa NE 12.2 km/h 13.0 km/h 72 % 0.0 mm
13:38 13.4 °C 9.0 °C 1018.8 hPa East 10.5 km/h 13.7 km/h 72 % 0.0 mm
13:43 13.3 °C 9.0 °C 1018.8 hPa East 9.7 km/h 15.8 km/h 71 % 0.0 mm
13:48 13.5 °C 9.0 °C 1018.8 hPa NNE 8.7 km/h 15.8 km/h 72 % 0.0 mm
13:53 13.8 °C 9.0 °C 1018.2 hPa ENE 10.5 km/h 12.2 km/h 72 % 0.0 mm
13:58 14.2 °C 9.0 °C 1018.2 hPa East 10.5 km/h 13.7 km/h 71 % 0.0 mm
14:03 14.2 °C 9.0 °C 1018.2 hPa East 12.6 km/h 13.7 km/h 70 % 0.0 mm
14:08 13.9 °C 9.0 °C 1018.2 hPa East 6.4 km/h 13.7 km/h 69 % 0.0 mm
14:09 13.9 °C 9.0 °C 1018.2 hPa East 9.7 km/h 13.7 km/h 69 % 0.0 mm
14:14 14.0 °C 9.0 °C 1018.2 hPa ENE 7.9 km/h 12.6 km/h 69 % 0.0 mm
14:19 14.1 °C 9.0 °C 1018.2 hPa ESE 6.9 km/h 12.6 km/h 69 % 0.0 mm
14:24 14.2 °C 9.0 °C 1018.2 hPa NE 12.2 km/h 12.6 km/h 69 % 0.0 mm
14:29 14.2 °C 9.0 °C 1018.2 hPa ESE 9.7 km/h 13.7 km/h 69 % 0.0 mm
14:31 14.3 °C 9.0 °C 1018.2 hPa ENE 11.9 km/h 13.7 km/h 69 % 0.0 mm
14:36 14.3 °C 9.0 °C 1018.2 hPa NE 13.0 km/h 13.7 km/h 68 % 0.0 mm
14:41 14.4 °C 9.0 °C 1018.2 hPa East 10.1 km/h 13.7 km/h 68 % 0.0 mm
14:46 14.2 °C 9.0 °C 1018.2 hPa East 1.8 km/h 16.6 km/h 67 % 0.0 mm
14:51 14.3 °C 9.0 °C 1018.2 hPa East 9.3 km/h 16.6 km/h 67 % 0.0 mm
14:56 14.0 °C 8.0 °C 1018.2 hPa ESE 9.7 km/h 14.0 km/h 67 % 0.0 mm
15:01 14.2 °C 9.0 °C 1018.2 hPa East 8.7 km/h 14.8 km/h 69 % 0.0 mm
15:06 14.4 °C 9.0 °C 1018.2 hPa East 12.6 km/h 14.8 km/h 68 % 0.0 mm
15:11 14.2 °C 9.0 °C 1018.2 hPa East 12.6 km/h 14.0 km/h 67 % 0.0 mm
15:16 14.2 °C 9.0 °C 1018.2 hPa East 10.5 km/h 14.0 km/h 67 % 0.0 mm
15:21 14.0 °C 8.0 °C 1016.8 hPa ENE 10.1 km/h 13.0 km/h 67 % 0.0 mm
15:26 13.9 °C 8.0 °C 1016.8 hPa East 11.6 km/h 13.7 km/h 67 % 0.0 mm
15:27 13.9 °C 8.0 °C 1016.8 hPa NE 6.4 km/h 13.7 km/h 67 % 0.0 mm
15:32 14.4 °C 9.0 °C 1016.8 hPa ENE 7.9 km/h 14.0 km/h 68 % 0.0 mm
15:37 14.3 °C 9.0 °C 1016.8 hPa NE 10.1 km/h 14.0 km/h 67 % 0.0 mm
15:42 13.9 °C 8.0 °C 1016.8 hPa ENE 9.3 km/h 13.0 km/h 67 % 0.0 mm
15:47 13.7 °C 8.0 °C 1016.8 hPa East 9.0 km/h 13.0 km/h 68 % 0.0 mm
15:52 13.6 °C 8.0 °C 1016.8 hPa ESE 9.3 km/h 11.6 km/h 68 % 0.0 mm
15:57 13.8 °C 8.0 °C 1016.8 hPa East 6.4 km/h 11.6 km/h 68 % 0.0 mm
16:02 13.8 °C 8.0 °C 1016.8 hPa ENE 7.9 km/h 11.6 km/h 68 % 0.0 mm
16:07 13.9 °C 9.0 °C 1016.8 hPa NE 9.7 km/h 12.6 km/h 68 % 0.0 mm
16:12 13.8 °C 8.0 °C 1016.8 hPa NE 10.5 km/h 12.6 km/h 68 % 0.0 mm
16:17 13.7 °C 8.0 °C 1016.8 hPa NE 12.2 km/h 12.2 km/h 68 % 0.0 mm
16:22 13.5 °C 8.0 °C 1016.8 hPa East 10.1 km/h 13.7 km/h 68 % 0.0 mm
16:23 13.5 °C 8.0 °C 1016.8 hPa ESE 9.0 km/h 13.7 km/h 68 % 0.0 mm
16:28 13.4 °C 8.0 °C 1016.8 hPa ENE 12.6 km/h 15.8 km/h 68 % 0.0 mm
16:33 13.3 °C 8.0 °C 1016.8 hPa East 11.6 km/h 15.8 km/h 68 % 0.0 mm
16:38 13.3 °C 8.0 °C 1016.8 hPa ENE 9.3 km/h 12.6 km/h 69 % 0.0 mm
16:43 13.3 °C 8.0 °C 1016.8 hPa East 9.7 km/h 12.2 km/h 70 % 0.0 mm
16:48 13.4 °C 8.0 °C 1016.8 hPa ENE 8.7 km/h 12.2 km/h 70 % 0.0 mm
16:53 13.5 °C 9.0 °C 1018.2 hPa ENE 9.7 km/h 12.2 km/h 70 % 0.0 mm
16:58 13.6 °C 9.0 °C 1018.2 hPa ENE 9.3 km/h 14.0 km/h 70 % 0.0 mm
17:03 13.7 °C 8.0 °C 1018.2 hPa NE 15.4 km/h 16.3 km/h 69 % 0.0 mm
17:04 13.7 °C 8.0 °C 1018.2 hPa NNE 14.0 km/h 16.3 km/h 69 % 0.0 mm
17:09 13.8 °C 8.0 °C 1016.8 hPa NE 13.0 km/h 16.9 km/h 69 % 0.0 mm
17:14 14.1 °C 9.0 °C 1016.8 hPa NE 12.6 km/h 16.9 km/h 69 % 0.0 mm
17:19 14.2 °C 9.0 °C 1016.8 hPa NNE 12.6 km/h 20.9 km/h 68 % 0.0 mm
17:24 14.4 °C 9.0 °C 1016.1 hPa NE 6.4 km/h 20.9 km/h 69 % 0.0 mm
17:29 14.1 °C 8.0 °C 1016.1 hPa ENE 11.9 km/h 17.2 km/h 67 % 0.0 mm
17:34 13.9 °C 8.0 °C 1016.1 hPa East 12.2 km/h 20.6 km/h 67 % 0.0 mm
17:39 13.9 °C 8.0 °C 1016.8 hPa ENE 10.1 km/h 20.6 km/h 67 % 0.0 mm
17:44 13.8 °C 8.0 °C 1016.8 hPa NNE 11.9 km/h 17.7 km/h 68 % 0.0 mm
17:49 13.8 °C 8.0 °C 1016.8 hPa ENE 13.7 km/h 17.2 km/h 69 % 0.0 mm
17:51 13.9 °C 9.0 °C 1016.1 hPa NE 14.0 km/h 17.2 km/h 69 % 0.0 mm
17:56 13.8 °C 8.0 °C 1016.1 hPa ENE 12.6 km/h 16.9 km/h 69 % 0.0 mm
18:01 13.7 °C 8.0 °C 1016.1 hPa ENE 15.8 km/h 16.9 km/h 69 % 0.0 mm
18:06 13.8 °C 8.0 °C 1016.1 hPa ENE 12.6 km/h 19.5 km/h 69 % 0.0 mm
18:11 14.1 °C 9.0 °C 1016.1 hPa NE 13.0 km/h 19.5 km/h 68 % 0.0 mm
18:16 14.2 °C 9.0 °C 1016.1 hPa NE 9.3 km/h 16.3 km/h 68 % 0.0 mm
18:21 14.0 °C 9.0 °C 1016.1 hPa NE 14.0 km/h 17.7 km/h 68 % 0.0 mm
18:26 13.7 °C 8.0 °C 1016.1 hPa NNE 10.1 km/h 17.7 km/h 68 % 0.0 mm
18:31 13.5 °C 8.0 °C 1016.1 hPa ENE 9.7 km/h 17.2 km/h 68 % 0.0 mm
18:36 13.5 °C 8.0 °C 1016.1 hPa NE 8.7 km/h 17.2 km/h 68 % 0.0 mm
18:41 13.4 °C 8.0 °C 1016.1 hPa NE 16.6 km/h 16.6 km/h 68 % 0.0 mm
18:46 13.4 °C 8.0 °C 1016.1 hPa East 9.3 km/h 16.6 km/h 69 % 0.0 mm
18:51 13.4 °C 8.0 °C 1016.1 hPa ENE 10.5 km/h 14.0 km/h 70 % 0.0 mm
18:56 13.4 °C 8.0 °C 1016.1 hPa ENE 9.3 km/h 13.0 km/h 70 % 0.0 mm
19:01 13.4 °C 8.0 °C 1016.1 hPa NE 12.6 km/h 13.0 km/h 70 % 0.0 mm
19:06 13.3 °C 8.0 °C 1015.1 hPa ENE 11.6 km/h 15.1 km/h 70 % 0.0 mm
19:11 13.4 °C 8.0 °C 1015.1 hPa East 11.9 km/h 15.1 km/h 70 % 0.0 mm
19:16 13.7 °C 9.0 °C 1015.1 hPa ENE 12.6 km/h 13.7 km/h 70 % 0.0 mm
19:21 13.8 °C 8.0 °C 1015.1 hPa ENE 11.9 km/h 16.3 km/h 69 % 0.0 mm
19:26 13.8 °C 8.0 °C 1015.1 hPa ENE 9.0 km/h 16.3 km/h 68 % 0.0 mm
19:31 13.8 °C 8.0 °C 1015.1 hPa East 12.6 km/h 15.8 km/h 68 % 0.0 mm
19:36 13.7 °C 8.0 °C 1015.1 hPa East 9.3 km/h 15.8 km/h 68 % 0.0 mm
19:41 13.5 °C 8.0 °C 1015.1 hPa ENE 10.5 km/h 13.7 km/h 68 % 0.0 mm
19:47 13.2 °C 8.0 °C 1015.1 hPa ENE 11.1 km/h 13.7 km/h 68 % 0.0 mm
19:52 12.9 °C 8.0 °C 1014.1 hPa ENE 13.7 km/h 13.7 km/h 69 % 0.0 mm
19:57 13.0 °C 8.0 °C 1014.1 hPa ENE 9.7 km/h 14.0 km/h 69 % 0.0 mm
20:02 12.9 °C 8.0 °C 1014.1 hPa East 11.6 km/h 14.0 km/h 70 % 0.0 mm
20:07 12.8 °C 8.0 °C 1015.1 hPa ENE 2.1 km/h 13.7 km/h 70 % 0.0 mm
20:08 12.8 °C 8.0 °C 1015.1 hPa East 7.9 km/h 13.0 km/h 71 % 0.0 mm
20:13 12.7 °C 8.0 °C 1015.1 hPa NE 6.9 km/h 11.6 km/h 71 % 0.0 mm
20:18 12.6 °C 8.0 °C 1015.1 hPa East 9.3 km/h 11.9 km/h 73 % 0.0 mm
20:23 12.6 °C 8.0 °C 1015.1 hPa NNE 9.0 km/h 11.9 km/h 73 % 0.0 mm
20:28 12.5 °C 8.0 °C 1015.1 hPa NE 11.9 km/h 16.6 km/h 73 % 0.0 mm
20:33 12.2 °C 8.0 °C 1015.1 hPa NE 11.1 km/h 16.6 km/h 73 % 0.0 mm
20:38 12.0 °C 8.0 °C 1015.1 hPa ENE 9.3 km/h 13.7 km/h 73 % 0.0 mm
20:43 11.9 °C 8.0 °C 1015.1 hPa NE 9.0 km/h 13.7 km/h 74 % 0.0 mm
20:48 11.7 °C 7.0 °C 1015.1 hPa NE 11.1 km/h 13.7 km/h 74 % 0.0 mm
20:53 11.6 °C 8.0 °C 1015.1 hPa NE 10.5 km/h 13.7 km/h 75 % 0.0 mm
20:58 11.5 °C 8.0 °C 1015.1 hPa ENE 6.9 km/h 13.0 km/h 75 % 0.0 mm
21:03 11.3 °C 7.0 °C 1015.1 hPa ENE 9.3 km/h 13.0 km/h 75 % 0.0 mm
21:08 11.1 °C 7.0 °C 1015.1 hPa ENE 11.9 km/h 12.6 km/h 76 % 0.0 mm
21:13 11.0 °C 7.0 °C 1015.1 hPa ENE 10.1 km/h 12.6 km/h 76 % 0.0 mm
21:18 10.9 °C 7.0 °C 1015.1 hPa ENE 9.7 km/h 12.2 km/h 77 % 0.0 mm
21:23 10.7 °C 7.0 °C 1015.1 hPa NE 7.6 km/h 12.2 km/h 78 % 0.0 mm
21:28 10.6 °C 7.0 °C 1015.1 hPa ENE 6.9 km/h 12.6 km/h 78 % 0.0 mm
21:29 10.6 °C 7.0 °C 1015.1 hPa NE 10.1 km/h 12.6 km/h 78 % 0.0 mm
21:34 10.5 °C 7.0 °C 1015.1 hPa ENE 7.9 km/h 12.6 km/h 79 % 0.0 mm
21:39 10.4 °C 7.0 °C 1015.1 hPa ENE 9.7 km/h 12.6 km/h 79 % 0.0 mm
21:44 10.3 °C 7.0 °C 1015.1 hPa NE 9.7 km/h 11.9 km/h 80 % 0.0 mm
21:49 10.3 °C 7.0 °C 1015.1 hPa NE 9.0 km/h 13.7 km/h 80 % 0.0 mm
21:54 10.2 °C 7.0 °C 1015.1 hPa NE 10.8 km/h 13.7 km/h 81 % 0.0 mm
21:59 10.2 °C 7.0 °C 1015.1 hPa ENE 13.0 km/h 15.8 km/h 81 % 0.0 mm
22:04 10.2 °C 7.0 °C 1015.1 hPa NE 11.1 km/h 15.8 km/h 81 % 0.0 mm
22:09 10.1 °C 7.0 °C 1015.1 hPa NE 9.7 km/h 14.0 km/h 82 % 0.0 mm
22:14 10.1 °C 7.0 °C 1015.1 hPa NE 9.7 km/h 14.0 km/h 82 % 0.0 mm
22:19 10.1 °C 7.0 °C 1015.1 hPa ENE 12.2 km/h 16.9 km/h 83 % 0.0 mm
22:24 10.0 °C 7.0 °C 1014.1 hPa NE 11.9 km/h 16.9 km/h 83 % 0.0 mm
22:29 9.9 °C 8.0 °C 1014.1 hPa NNE 9.3 km/h 14.0 km/h 84 % 0.0 mm
22:34 9.9 °C 8.0 °C 1014.1 hPa NE 12.2 km/h 14.8 km/h 84 % 0.0 mm
22:39 9.8 °C 7.0 °C 1014.1 hPa NE 10.1 km/h 14.8 km/h 84 % 0.0 mm
22:44 9.7 °C 7.0 °C 1014.1 hPa NE 9.3 km/h 13.7 km/h 84 % 0.0 mm
22:49 9.6 °C 8.0 °C 1014.1 hPa NNE 12.6 km/h 14.3 km/h 85 % 0.0 mm
22:54 9.5 °C 8.0 °C 1014.1 hPa NE 9.7 km/h 15.4 km/h 85 % 0.0 mm
22:55 9.5 °C 8.0 °C 1014.1 hPa NE 12.2 km/h 15.4 km/h 86 % 0.0 mm
23:00 9.5 °C 8.0 °C 1014.1 hPa ENE 9.7 km/h 15.4 km/h 86 % 0.0 mm
23:05 9.4 °C 7.0 °C 1014.1 hPa ENE 9.0 km/h 15.1 km/h 86 % 0.0 mm
23:10 9.3 °C 7.0 °C 1014.1 hPa NE 13.0 km/h 13.0 km/h 86 % 0.0 mm
23:15 9.3 °C 7.0 °C 1014.1 hPa ENE 10.8 km/h 13.0 km/h 86 % 0.0 mm
23:20 9.3 °C 7.0 °C 1014.1 hPa NE 9.3 km/h 13.0 km/h 86 % 0.0 mm
23:25 9.2 °C 8.0 °C 1014.1 hPa ENE 10.1 km/h 12.6 km/h 87 % 0.0 mm
23:30 9.2 °C 8.0 °C 1014.1 hPa NE 9.0 km/h 12.6 km/h 87 % 0.0 mm
23:35 9.1 °C 7.0 °C 1014.1 hPa ENE 8.7 km/h 11.9 km/h 88 % 0.0 mm
23:40 9.1 °C 7.0 °C 1014.1 hPa ENE 12.6 km/h 12.6 km/h 88 % 0.0 mm
23:45 9.1 °C 8.0 °C 1014.1 hPa ENE 9.7 km/h 12.6 km/h 89 % 0.0 mm
23:50 9.1 °C 8.0 °C 1014.1 hPa ENE 13.0 km/h 14.0 km/h 89 % 0.0 mm
23:55 9.2 °C 8.0 °C 1014.1 hPa ENE 12.2 km/h 14.0 km/h 90 % 0.0 mm
Le Gheer Warneton
Courtoisie de Weather Underground - 2.25 mb

Mise a jour : 16-12-17 15:55:11
Généré par Cumulus 1.9.4 (1099)